Wind_Speed
66 66 66 66 65 66 66 67 67 68 69 69 70 71 71 71 71 71 71 72 72 73 74 74 75 76 77 77 78 79 80 80 81 82 83 83 84 85 86 87 87 88 89 90 91 92 93 94 95 96 96 97 98 99 99 100 100 101 101 102 102 103 103 103 103 104 105 106 106 106 106 106 107 107 108 109 109 110 111 112 113 114 114 114 115
67 67 67 66 66 66 67 68 68 69 70 70 71 72 72 71 71 71 71 72 72 73 74 75 76 77 78 78 79 80 81 82 83 84 84 85 86 87 87 88 89 90 91 91 92 93 94 95 96 97 98 98 99 100 100 101 102 102 103 103 104 104 105 105 105 105 106 107 107 107 107 107 107 108 109 110 110 111 112 113 113 113 113 112 112
68 69 68 68 67 67 67 68 69 70 71 71 72 73 73 73 73 73 73 73 74 74 75 76 77 78 79 79 80 81 82 83 84 85 86 86 87 88 89 90 91 92 93 93 94 95 96 97 98 98 99 100 100 101 102 103 103 104 104 105 105 105 106 106 106 106 106 107 107 107 107 108 109 109 109 110 110 110 110 110 109 109 108 108 107
67 68 67 67 67 67 67 68 69 70 71 72 73 74 74 74 75 75 75 75 76 76 77 78 78 79 80 81 81 82 83 83 84 85 86 87 88 89 90 91 92 93 94 95 96 97 97 98 99 99 100 101 101 102 103 103 104 104 105 105 106 106 106 107 107 107 107 107 107 107 107 107 107 107 107 106 106 105 105 105 104 103 102 101 100
63 63 63 62 63 63 64 64 66 68 69 70 71 72 73 74 74 75 75 76 77 77 78 79 80 81 82 82 83 84 84 85 85 86 87 88 89 90 91 92 93 94 95 95 96 97 98 99 99 100 100 101 102 103 104 104 105 106 106 107 107 107 108 107 107 107 106 105 104 103 103 103 103 103 102 101 100 100 99 97 97 96 95 94 94
59 59 58 58 59 59 59 60 62 63 64 65 66 67 68 69 70 71 72 73 74 75 76 77 79 80 81 82 84 85 86 86 87 88 89 90 91 92 93 93 94 95 96 96 97 98 99 99 100 101 102 103 104 104 105 106 106 107 107 107 106 106 105 104 103 102 101 99 99 98 98 98 98 97 96 95 94 93 92 90 89 90 90 91 91
58 58 57 57 57 57 57 58 59 60 61 62 63 64 64 65 66 67 68 68 69 70 71 72 73 75 76 78 79 81 82 84 85 86 88 89 90 91 93 94 95 96 96 97 98 99 99 100 101 101 102 103 103 103 104 103 103 103 102 102 101 100 100 99 98 97 96 95 94 93 93 93 92 91 90 89 88 87 87 87 87 87 88 90 91
58 58 58 58 57 57 57 58 59 59 60 61 61 62 63 63 64 64 65 65 66 66 67 68 69 70 71 72 73 75 76 78 79 81 82 84 85 86 88 89 90 91 92 93 94 95 95 96 97 97 97 98 98 98 98 97 97 97 96 96 96 95 95 94 93 92 91 90 89 88 88 87 87 86 86 85 85 85 85 86 87 88 89 90 92
58 58 58 58 58 58 58 58 58 59 60 61 60 61 61 62 62 63 63 64 65 65 66 66 67 68 68 69 70 71 72 73 75 76 77 78 79 80 82 83 84 85 86 87 87 88 89 89 90 90 91 91 92 92 92 92 91 91 91 91 91 90 90 89 88 87 86 85 85 84 84 84 84 84 84 84 85 85 86 87 88 89 90 91 92
59 59 59 59 59 59 59 59 59 59 60 61 60 60 61 61 61 62 63 63 64 65 66 66 66 67 67 68 68 69 69 70 71 72 72 74 75 75 76 77 78 79 80 81 81 82 83 83 84 85 85 86 86 86 87 87 87 87 87 87 87 87 86 86 85 85 84 84 83 83 83 83 84 84 85 86 86 87 88 88 89 90 91 92 93
60 60 60 60 60 60 60 60 60 60 61 61 62 61 61 61 61 61 62 63 64 65 66 66 67 67 67 68 68 68 68 69 69 70 70 71 72 72 73 74 75 75 76 77 77 78 79 79 80 80 81 82 82 83 83 83 84 84 84 85 85 85 85 85 84 84 84 84 84 84 84 85 85 85 86 87 87 88 88 88 89 90 90 91 92
61 61 61 61 61 61 61 61 61 61 62 63 63 63 63 63 63 63 63 63 64 65 66 66 67 68 68 69 69 69 70 70 70 71 71 71 72 73 73 73 74 74 75 75 76 77 77 78 78 79 79 80 81 81 82 83 83 84 84 85 85 85 86 86 85 85 85 85 85 86 86 86 86 86 87 87 88 88 88 88 88 89 90 90 91
62 62 62 62 63 63 63 63 63 63 63 64 65 65 65 65 65 65 65 66 66 67 67 68 68 69 69 70 70 71 72 72 72 73 73 73 74 74 75 75 76 76 76 77 77 78 78 79 79 80 80 81 82 82 83 84 84 85 86 86 87 87 87 87 87 87 87 87 87 87 87 87 87 87 87 87 87 87 87 87 88 88 89 90 91
64 64 64 65 65 65 65 65 65 65 66 66 67 67 67 67 68 68 68 68 69 69 70 70 70 71 71 72 72 73 73 74 75 75 75 75 76 77 77 78 78 79 79 80 80 81 81 82 82 83 84 84 85 85 86 86 87 87 88 89 89 89 89 89 89 88 88 88 88 87 87 87 87 87 86 86 86 87 88 88 89 89 89 90 90
65 66 66 67 67 68 68 68 68 68 69 69 70 70 70 70 70 70 70 71 72 72 72 73 73 73 74 74 74 75 75 76 77 77 77 78 78 79 80 81 81 82 82 83 83 84 84 85 85 86 87 87 87 88 88 89 89 89 90 90 90 90 89 89 89 89 88 88 88 88 87 87 87 88 88 87 87 87 88 89 90 90 90 90 90
66 66 67 67 68 69 69 70 70 71 71 72 72 73 73 73 73 73 73 74 74 75 75 76 76 76 76 77 77 78 78 79 79 80 80 80 81 82 82 83 83 84 84 85 85 86 86 87 87 88 88 88 89 89 89 90 90 90 90 90 90 90 90 89 89 89 89 89 88 88 88 88 88 88 89 89 89 89 88 89 89 89 90 90 90
68 69 69 69 70 70 70 71 71 72 72 73 74 75 75 75 75 75 76 76 77 77 78 78 79 79 79 80 80 81 81 82 82 83 84 84 84 85 86 86 87 87 87 88 88 88 89 89 89 90 90 90 90 90 91 90 90 91 91 91 91 91 90 90 90 90 89 89 89 89 88 88 89 89 89 89 89 89 89 89 88 88 88 88 89
71 72 73 73 74 74 74 74 74 74 74 75 75 76 76 77 77 77 78 78 79 79 80 80 81 82 82 83 83 84 85 85 86 86 87 87 88 88 89 90 90 90 91 91 91 92 92 92 92 92 92 92 92 92 92 92 92 92 92 92 92 92 92 91 91 90 90 89 89 89 88 88 88 89 89 89 88 88 88 88 88 87 87 87 87
73 74 75 76 77 77 78 78 78 78 78 78 78 78 78 79 79 79 79 80 81 81 82 82 83 84 85 85 86 87 87 88 88 89 89 90 90 91 92 92 93 93 94 94 94 95 95 95 95 95 94 94 94 94 94 93 94 94 94 94 94 93 93 92 92 91 90 89 88 88 88 88 88 88 88 88 87 87 88 87 87 87 87 86 86
75 76 77 78 79 80 80 81 81 81 81 81 81 81 81 81 81 81 82 82 83 83 83 84 85 86 87 88 88 89 89 90 90 91 91 92 92 93 94 94 95 95 96 96 96 97 97 97 96 96 96 95 95 95 95 95 95 94 94 94 94 94 93 92 92 91 90 89 88 87 87 86 86 86 87 87 87 87 87 86 86 86 86 86 85
77 78 79 80 81 82 82 82 82 82 82 82 82 82 83 83 83 83 84 84 85 85 85 86 87 87 88 89 90 91 91 92 92 92 93 93 94 94 95 96 96 96 96 97 97 98 98 97 97 96 96 95 95 96 96 95 95 94 94 93 93 93 93 92 91 90 89 88 87 87 86 86 86 86 86 86 86 86 85 85 85 85 84 84 83
80 81 82 82 83 84 84 84 84 84 83 83 83 82 83 83 83 84 85 86 86 86 86 87 88 88 89 90 91 92 92 93 93 93 93 94 94 95 96 96 97 97 97 97 97 98 98 98 97 96 95 95 96 96 96 96 95 94 93 92 92 92 92 91 90 89 88 87 87 86 85 85 85 85 85 85 85 84 84 83 83 82 82 81 80
82 83 84 85 85 85 85 85 85 84 84 83 83 82 82 83 83 83 84 85 86 86 87 88 88 89 89 90 91 92 93 93 93 93 93 94 94 95 95 96 96 96 96 96 97 96 96 96 95 95 95 95 96 96 96 95 93 92 91 90 90 90 89 88 87 87 86 86 85 84 84 83 83 82 82 82 82 81 81 80 80 79 78 77 75
85 86 86 87 87 87 86 86 85 85 84 84 83 82 82 82 82 82 83 84 85 85 86 88 88 89 89 89 90 92 92 92 92 93 93 93 93 93 94 94 94 94 94 94 94 93 93 93 93 93 93 94 94 94 93 92 90 89 88 88 87 87 86 84 84 83 83 82 81 81 80 80 79 79 78 78 77 77 77 76 75 74 73 72 70
87 88 88 88 88 87 87 86 85 85 84 83 83 82 82 81 81 81 82 82 83 83 84 86 87 87 88 88 89 90 90 91 91 91 91 91 91 91 92 92 91 91 91 91 91 90 90 90 90 90 90 90 91 91 90 88 86 85 84 84 84 82 80 79 79 78 78 77 76 76 75 75 75 75 74 73 72 72 72 71 69 68 67 67 65
90 90 90 89 89 88 87 86 85 85 84 83 82 82 81 80 80 80 80 80 80 81 81 82 83 84 84 85 85 86 87 88 88 88 88 88 87 87 88 88 87 87 87 86 86 86 86 86 86 86 86 86 87 86 85 83 81 79 79 79 78 76 74 74 73 72 72 71 71 70 70 70 70 70 69 68 67 67 66 65 64 63 62 61 59
92 91 91 90 89 88 87 86 85 84 83 82 81 80 79 79 79 78 78 78 78 78 78 79 79 79 80 81 82 82 83 84 84 84 84 84 83 83 83 83 82 82 81 81 81 81 81 80 80 81 81 82 82 81 80 77 74 73 73 73 71 70 68 68 68 67 66 66 66 66 66 66 66 65 64 63 62 61 60 60 60 58 56 54 53
93 93 92 91 89 88 87 85 84 83 81 80 80 79 78 77 77 77 76 76 76 77 77 77 77 77 77 78 78 79 79 80 80 80 80 80 80 79 79 79 78 78 78 78 77 77 76 76 76 77 77 77 77 76 74 71 68 67 68 67 66 64 63 63 63 62 62 61 62 62 62 62 61 60 59 58 57 56 56 56 55 53 50 49 48
95 94 93 91 90 88 86 84 83 81 80 78 78 77 76 76 76 75 75 75 75 75 75 76 76 76 76 76 76 76 77 77 77 77 77 77 76 76 76 76 75 75 75 74 74 74 73 72 73 73 73 73 72 71 69 66 63 63 64 63 61 60 60 59 58 58 58 58 58 58 58 57 56 55 54 53 52 52 52 50 49 47 46 45 44
95 95 93 92 90 88 85 83 81 80 78 77 76 76 75 75 74 74 74 74 74 74 74 74 74 74 74 74 74 74 74 74 74 74 74 74 74 73 73 73 73 73 72 72 72 72 71 70 70 70 69 69 69 67 65 62 61 61 61 59 57 57 57 56 55 54 55 55 55 55 54 52 51 50 49 49 48 47 46 45 44 43 42 42 41
96 94 93 91 89 86 84 81 80 79 78 77 76 75 75 74 74 74 73 73 74 73 73 73 73 73 73 73 73 73 73 72 72 72 72 72 71 71 70 70 70 71 71 71 71 70 69 68 68 66 66 66 65 63 61 59 59 59 58 56 54 54 53 52 51 51 51 51 51 50 49 47 46 45 45 45 44 42 41 40 39 39 38 37 37
95 93 91 89 87 85 83 81 79 78 78 77 76 75 74 74 73 73 72 72 72 72 72 72 72 72 72 72 72 72 72 71 71 71 70 70 69 69 69 68 68 69 69 70 70 69 67 66 65 63 63 63 62 59 57 56 57 56 54 53 52 52 50 49 48 48 48 47 46 45 44 43 42 42 41 40 39 37 36 36 36 35 35 33 33
94 92 90 87 85 83 82 80 79 78 77 76 75 75 74 73 73 72 72 71 71 71 71 71 71 71 71 71 71 71 70 70 70 70 69 69 68 67 67 66 66 67 68 68 68 67 65 63 62 61 60 60 59 56 55 55 54 53 51 51 50 48 47 46 45 44 44 43 41 40 40 39 39 37 36 35 34 33 33 33 33 32 31 31 31
92 90 87 85 84 82 81 80 79 78 77 76 75 74 74 73 72 72 71 71 70 70 70 69 68 68 69 69 68 68 69 69 68 68 67 67 66 65 65 65 65 66 66 66 65 64 63 61 59 58 58 57 55 54 53 53 52 50 49 49 47 45 44 43 42 41 39 38 37 36 36 36 34 33 32 31 30 30 30 30 29 28 28 29 29
90 88 86 84 83 82 81 80 79 78 77 76 75 74 74 73 72 72 71 71 70 70 69 69 67 67 67 67 66 65 65 66 66 66 65 65 64 63 62 63 63 64 64 64 63 61 59 58 57 56 55 54 53 52 51 50 49 47 47 46 44 42 41 39 38 37 36 34 34 33 32 31 30 29 28 27 27 27 27 26 26 26 26 27 27
88 86 85 84 82 81 80 79 78 77 76 75 74 74 73 73 73 72 72 71 71 70 70 69 67 66 66 66 64 63 63 62 63 63 63 62 61 61 60 60 61 61 61 61 60 57 56 55 54 53 52 51 50 50 49 47 46 45 44 42 41 39 38 36 35 33 32 31 30 29 28 27 26 25 25 25 25 24 23 23 23 24 24 24 24
86 85 83 82 81 80 78 77 76 75 75 74 73 73 73 73 73 72 72 72 71 70 69 68 67 66 65 64 63 63 62 61 60 60 60 60 59 58 58 59 59 59 58 57 56 54 53 52 51 51 49 48 49 48 46 44 44 43 41 39 37 36 34 33 31 30 29 28 27 26 25 24 23 23 23 23 22 21 20 20 20 21 21 22 22
85 83 82 81 79 78 77 75 75 75 74 74 74 73 73 72 72 72 71 71 70 70 69 67 66 65 64 63 62 61 61 60 59 58 57 57 56 56 56 57 56 55 54 53 53 52 50 49 48 48 47 47 47 46 43 42 42 40 38 36 34 33 31 30 28 27 26 25 24 23 22 21 21 21 21 20 18 18 18 18 17 17 18 20 21
83 82 80 79 78 77 76 75 75 75 75 74 74 73 72 72 71 70 70 70 69 69 68 67 66 64 63 62 61 59 59 58 58 57 55 54 54 54 54 54 54 52 51 50 49 48 48 47 46 45 45 45 44 42 41 40 39 37 34 33 31 29 28 27 25 24 23 22 21 20 19 19 20 20 18 16 16 16 16 15 15 15 16 17 19
81 80 79 78 77 77 76 76 75 75 74 74 73 72 71 71 70 69 68 68 67 67 66 65 64 63 62 61 59 58 57 56 55 55 54 53 52 52 52 52 51 49 48 47 45 45 45 45 44 43 43 42 41 39 39 38 35 33 31 30 28 26 25 24 23 22 20 19 18 17 18 19 18 16 14 14 14 13 13 13 13 14 15 16 18
80 79 78 78 77 77 76 75 75 74 73 72 72 71 70 70 69 68 67 67 66 65 65 64 63 62 60 59 58 57 55 54 53 52 51 51 51 50 50 49 48 46 45 44 43 43 43 43 42 41 40 39 37 37 37 34 32 30 28 27 25 24 23 22 21 19 17 16 16 16 17 16 14 13 12 11 11 10 10 11 12 13 14 16 17
80 79 78 77 77 76 75 74 73 72 72 71 70 70 69 69 68 67 66 65 65 64 63 62 61 60 59 58 56 55 53 52 51 50 49 49 48 48 48 47 45 43 41 41 40 41 41 40 40 39 37 35 35 35 33 30 28 27 25 23 22 22 21 20 18 16 14 14 15 15 14 13 11 10 10 8 7 8 8 9 11 12 14 15 15
79 79 78 77 76 75 74 73 72 71 70 69 69 68 67 67 66 65 65 64 63 62 61 60 60 58 57 56 54 53 51 49 48 47 47 46 46 46 45 44 42 40 39 38 38 39 39 38 37 35 33 33 33 32 29 27 26 24 22 21 21 20 19 17 14 13 13 14 14 13 11 9 8 8 7 5 5 6 7 8 10 12 14 14 13
78 77 76 75 74 73 72 71 70 69 68 68 67 67 66 65 64 63 63 62 61 60 59 58 57 56 55 54 52 51 49 47 45 45 44 44 44 44 43 41 39 38 37 37 37 37 36 35 33 31 31 31 31 28 26 24 23 21 20 20 20 18 16 13 12 12 13 13 11 9 8 7 6 5 4 4 5 6 7 8 9 11 12 12 12
76 76 75 74 72 71 70 69 68 67 67 66 65 65 64 63 62 61 60 60 59 58 57 56 55 54 53 51 50 48 46 44 43 42 42 41 41 40 40 38 37 36 35 35 35 35 34 32 30 29 29 29 27 25 23 22 20 19 19 19 18 15 13 11 11 11 12 10 8 6 5 4 3 3 3 4 5 5 6 8 9 10 9 9 10
74 74 73 72 71 70 69 68 67 66 65 64 64 63 62 61 60 59 58 57 56 56 55 54 53 52 51 49 47 45 44 42 41 40 39 39 38 37 37 36 35 34 34 34 34 32 31 29 28 28 27 26 23 22 21 19 18 19 19 17 14 12 11 10 10 10 10 8 6 4 4 4 4 4 4 4 4 5 6 8 9 9 8 8 10
73 72 71 70 69 68 67 66 65 64 64 63 62 61 60 59 58 57 56 55 54 54 53 52 51 50 48 47 45 43 41 40 39 38 37 36 35 35 34 33 32 32 32 32 32 30 28 27 26 26 24 23 21 19 18 18 18 18 17 14 12 11 10 10 10 9 7 6 5 5 5 6 6 6 5 3 3 5 6 7 8 8 8 8 12
72 71 70 69 68 68 67 66 65 64 63 61 60 60 59 58 57 55 54 53 52 51 51 50 49 47 46 44 42 41 39 38 37 36 35 34 33 33 32 31 31 31 31 31 30 28 27 26 25 23 22 20 18 17 17 18 18 17 14 12 11 10 10 10 9 7 6 5 6 7 8 8 8 6 4 3 3 5 6 6 7 7 9 13 17
71 70 69 68 67 66 65 64 63 62 61 60 59 58 57 56 55 53 52 51 50 49 48 47 46 45 43 42 40 39 37 36 35 34 33 32 31 31 30 29 29 29 29 29 28 27 25 24 23 21 19 18 16 16 17 18 16 14 12 11 11 10 10 9 8 7 7 8 9 10 11 10 7 5 3 2 3 4 5 5 6 10 15 19 22
70 69 67 66 65 64 63 62 60 59 59 58 57 56 55 54 53 51 50 48 47 46 45 44 43 42 41 39 38 36 35 34 33 32 31 30 29 28 28 28 28 28 27 27 26 25 23 22 21 19 17 16 16 17 18 17 14 13 12 11 11 10 9 9 8 8 9 11 12 13 12 9 6 3 2 2 2 3 3 5 11 16 20 22 23
68 66 65 64 63 62 61 60 58 57 57 56 55 54 53 52 50 49 47 46 45 44 43 42 41 39 38 37 35 34 33 32 31 30 29 28 27 27 27 26 26 26 26 25 24 23 21 20 19 16 15 15 17 18 17 15 13 12 12 11 11 10 10 9 10 11 13 14 15 13 10 7 5 2 0 2 2 3 6 11 16 20 22 23 23
Wind_Direction
289 288 287 286 285 284 283 282 281 280 279 279 278 278 277 277 276 276 275 275 275 275 275 274 274 273 273 273 272 272 272 272 272 272 272 272 272 272 272 273 273 273 273 274 274 274 274 275 275 275 276 276 276 277 277 278 278 278 279 279 279 279 279 279 280 280 280 280 281 281 281 281 282 282 282 282 282 282 282 282 282 282 282 282 282
289 288 287 286 285 284 283 282 282 281 280 279 278 278 278 277 277 277 276 276 275 275 275 274 274 274 273 273 273 272 272 272 272 272 272 272 272 272 273 273 273 273 274 274 274 274 275 275 275 276 276 277 277 277 278 278 279 279 279 279 279 280 280 280 280 280 281 281 281 282 282 282 282 282 282 282 282 282 282 282 282 282 282 282 282
290 288 287 286 285 284 283 282 282 281 280 279 279 278 278 278 277 277 277 276 275 275 275 274 274 274 274 274 273 273 273 273 273 273 273 273 273 273 273 274 274 274 274 274 275 275 275 276 276 276 277 277 278 278 279 279 279 279 279 280 280 280 280 280 281 281 281 281 282 282 282 282 282 282 282 282 282 282 282 282 282 283 283 283 284
291 289 288 287 286 285 284 283 282 281 280 280 279 279 279 278 278 277 277 277 276 276 275 275 275 275 275 274 274 274 274 274 274 274 274 274 274 274 274 274 274 274 275 275 275 276 276 276 277 277 278 278 279 279 279 279 280 280 280 280 280 280 281 281 281 281 281 282 282 282 282 282 282 282 282 282 282 282 283 283 284 285 285 286 286
293 291 291 290 289 288 287 285 284 283 282 281 280 280 279 279 278 278 277 277 276 276 276 275 275 275 275 275 275 274 274 274 274 274 274 274 274 274 275 275 275 275 275 276 276 277 277 277 278 278 279 279 279 279 279 279 280 280 280 280 281 281 281 281 281 282 282 282 282 282 282 282 282 282 283 283 284 284 285 286 287 287 287 287 286
295 294 293 292 291 290 289 289 287 286 285 284 283 282 281 280 280 279 278 278 277 277 276 276 275 275 275 275 274 274 274 274 274 274 274 274 274 275 275 275 275 275 276 276 276 277 277 277 278 278 278 278 278 279 279 279 280 280 280 281 281 281 281 282 282 282 282 282 282 282 282 282 283 284 285 286 286 287 288 288 288 288 288 287 287
296 295 295 294 293 292 292 291 290 289 288 287 286 286 284 283 282 281 280 280 279 278 278 277 277 276 276 275 275 275 275 275 275 275 275 274 275 275 275 275 275 275 276 276 276 276 277 277 277 277 277 278 278 279 279 280 280 280 281 281 282 282 282 282 282 283 283 283 283 283 284 284 286 286 287 288 289 289 289 289 288 287 287 287 287
297 297 296 295 294 294 293 292 292 291 290 289 289 288 287 285 284 283 282 282 281 280 280 279 279 278 278 278 277 277 276 276 276 276 276 276 276 276 276 276 276 276 276 276 277 277 277 277 277 278 278 278 279 279 280 280 281 281 282 282 282 282 283 283 283 284 284 285 285 285 286 287 288 288 289 289 290 289 289 289 288 288 288 288 288
297 296 296 295 295 294 293 293 292 292 291 291 290 289 288 286 286 285 284 283 282 282 281 280 280 279 279 279 278 278 278 277 277 277 277 277 277 277 277 277 277 277 277 278 278 278 278 278 279 279 279 280 280 280 281 281 282 282 282 282 283 283 284 284 285 285 286 286 287 287 288 288 289 289 290 289 289 289 289 288 288 289 289 288 288
296 296 295 295 294 294 293 292 292 292 291 291 290 290 289 288 287 286 285 284 283 282 281 281 280 280 279 279 279 278 278 278 278 278 278 278 278 277 278 278 278 278 278 278 279 279 279 279 279 280 280 280 281 281 282 282 282 282 283 283 284 284 285 285 286 286 287 288 288 288 289 289 289 289 289 289 289 289 289 289 289 289 289 289 288
297 296 296 295 294 294 293 292 292 291 290 290 289 289 289 288 288 287 286 285 284 283 282 281 280 279 279 279 278 278 278 278 278 278 278 278 278 278 278 278 278 279 279 279 279 280 280 280 280 281 281 281 282 282 282 283 283 283 284 284 285 285 286 286 287 287 288 288 289 289 289 289 289 289 289 289 290 290 290 290 290 289 289 289 288
299 298 297 296 295 294 294 293 292 291 290 289 289 288 288 288 287 287 286 285 285 284 283 282 281 280 280 279 278 278 278 278 277 277 277 278 278 278 278 278 279 279 279 280 280 280 281 281 281 281 281 282 282 282 283 283 283 284 284 285 285 286 286 287 287 288 288 288 289 289 289 290 290 290 290 290 290 290 290 290 289 289 289 289 289
300 300 299 299 298 297 296 295 293 292 291 290 289 288 288 287 287 286 286 285 285 284 284 283 282 282 281 280 280 279 279 278 278 278 278 278 278 278 278 279 279 279 279 280 280 280 280 281 281 281 281 281 282 282 282 283 283 284 284 284 285 285 286 287 288 288 289 289 289 290 290 290 290 290 290 290 290 290 290 289 289 289 289 289 289
302 302 301 301 300 299 298 297 296 294 293 292 290 289 288 287 287 286 285 285 284 284 283 283 283 282 282 282 281 281 281 280 280 280 280 279 279 279 279 279 279 279 279 280 280 280 280 280 281 281 281 281 281 282 282 282 283 283 284 284 285 286 287 287 288 289 289 290 290 290 290 291 291 291 291 290 290 290 290 290 289 289 289 289 289
303 303 302 302 301 301 300 299 298 297 295 294 292 291 290 289 288 287 286 285 284 284 283 283 282 282 282 282 282 282 282 282 281 281 281 281 280 280 280 280 280 280 280 280 280 280 280 280 281 281 281 281 282 282 282 283 283 284 284 285 286 286 287 288 288 289 289 290 290 290 291 291 291 291 291 290 290 289 289 290 290 290 290 289 289
302 302 302 301 300 300 299 298 298 297 296 295 294 293 292 291 290 288 287 286 285 284 284 283 282 282 282 281 281 281 281 281 281 281 281 281 281 280 280 280 280 280 280 280 280 280 281 281 281 281 281 282 282 282 283 283 284 284 285 285 286 287 287 288 288 289 289 289 290 290 290 291 290 290 290 290 290 290 290 290 290 290 290 290 290
302 302 301 301 300 299 298 297 296 295 294 293 293 292 291 291 290 289 288 287 286 285 285 284 283 283 282 282 281 281 280 280 280 280 280 280 280 280 280 280 280 280 281 281 281 281 281 281 281 282 282 282 283 283 283 284 285 285 286 287 287 288 288 288 289 289 289 289 289 290 290 290 290 290 290 290 290 290 290 290 290 290 290 291 291
303 303 302 302 301 300 299 298 296 295 294 293 292 291 290 289 288 288 287 286 286 285 285 284 284 283 282 282 281 281 281 280 280 280 280 281 281 281 281 281 281 281 281 282 282 282 282 282 282 283 283 283 284 284 285 285 286 287 287 288 288 288 288 289 289 289 289 289 289 289 289 289 290 290 290 290 290 290 290 290 290 290 290 291 291
302 302 302 301 301 300 299 298 297 296 295 293 292 291 290 289 288 287 286 285 285 284 284 283 283 282 282 281 281 281 281 280 280 280 280 280 280 281 281 281 281 281 282 282 282 282 283 283 283 283 284 284 285 285 286 287 287 288 288 288 288 288 289 289 289 289 289 289 289 289 289 289 290 290 290 290 290 290 290 290 291 291 291 291 291
301 301 301 300 300 299 298 297 297 296 295 293 292 291 291 290 289 288 287 285 285 284 283 282 282 281 281 281 281 280 280 280 280 280 280 280 280 280 280 280 281 281 281 282 282 282 283 283 284 284 285 285 286 287 287 287 288 288 288 288 288 288 288 288 288 289 289 289 289 289 290 290 290 290 290 290 290 290 290 290 290 291 291 292 292
300 300 300 299 299 298 298 297 296 295 294 293 292 291 290 289 289 288 287 286 285 284 283 283 282 281 281 281 280 280 280 280 280 280 280 280 281 281 281 281 281 281 282 282 282 283 283 284 285 285 286 287 287 288 288 288 288 288 287 288 288 288 288 288 288 289 289 289 290 290 290 290 290 290 290 290 290 290 290 290 291 291 292 292 293
300 300 300 300 299 299 298 297 296 295 294 293 292 291 289 288 288 287 286 286 285 284 284 283 283 282 282 281 281 281 280 280 280 280 281 281 281 281 282 282 282 282 283 283 283 284 284 285 286 287 287 288 288 288 287 287 287 287 287 287 288 288 288 289 289 289 290 290 290 290 290 290 289 289 289 289 289 289 290 291 291 291 292 293 294
301 301 301 301 300 299 299 298 297 295 294 293 292 291 289 288 287 286 286 285 285 284 284 283 283 283 282 282 282 282 282 282 282 282 282 282 282 282 282 283 283 283 283 284 284 285 285 286 287 287 288 287 287 287 286 286 287 287 287 288 288 288 289 289 290 290 290 290 290 289 289 289 289 289 289 289 289 290 290 291 291 292 293 293 294
302 302 302 302 301 300 299 298 297 296 295 294 293 292 290 289 288 287 286 285 284 284 284 283 283 283 283 283 282 283 283 283 283 283 283 283 283 283 283 284 284 284 285 285 285 286 287 287 287 287 287 287 286 286 286 286 287 288 288 289 289 289 290 290 290 290 290 289 289 289 288 288 288 288 288 288 289 290 290 291 292 293 293 293 293
303 303 303 302 302 301 300 299 298 297 296 295 294 293 291 290 289 288 287 286 285 284 284 283 283 283 283 283 283 284 284 284 284 284 284 284 284 284 285 285 285 286 286 287 287 287 288 287 287 287 287 286 287 287 287 287 288 289 290 290 290 290 290 290 290 289 289 288 288 288 288 288 288 288 288 289 290 290 291 292 293 293 293 293 295
304 304 303 303 302 301 301 300 299 298 297 296 295 294 293 292 291 289 288 287 287 286 285 285 284 284 285 285 284 284 284 284 284 285 285 285 285 285 286 286 287 287 287 287 287 287 287 287 287 287 287 287 287 287 288 289 290 291 291 290 290 290 290 290 289 289 288 288 288 288 287 287 287 288 289 290 291 291 292 293 292 292 293 295 296
305 304 304 303 303 302 301 301 300 299 298 297 296 295 294 293 292 291 290 289 289 288 287 287 286 286 286 285 285 285 285 285 286 286 286 286 287 287 287 287 287 288 288 287 287 287 287 288 288 288 288 287 288 289 290 291 292 292 291 291 290 291 290 290 289 288 288 288 288 287 287 287 288 289 290 291 292 292 292 292 292 293 295 296 296
305 305 305 304 303 303 302 301 300 299 298 297 296 295 294 294 293 292 291 291 290 289 289 288 288 287 287 287 286 286 286 286 287 287 287 287 288 288 288 288 288 288 288 288 288 288 288 288 288 288 288 288 289 290 291 292 293 293 292 291 291 291 290 289 289 289 288 288 287 287 287 288 289 290 291 292 292 291 291 292 293 295 296 296 296
306 306 305 305 304 303 302 301 300 299 298 297 297 296 295 294 293 293 292 291 291 290 290 289 289 288 288 288 287 287 287 287 287 287 288 288 288 288 289 289 289 289 289 289 289 289 288 288 288 288 289 291 291 292 292 293 294 293 292 292 292 291 290 289 289 289 288 287 287 287 288 288 290 291 292 291 291 290 291 293 295 296 296 296 297
306 306 305 305 304 303 302 301 300 299 299 298 297 296 295 294 294 293 292 292 291 291 290 290 289 289 289 288 288 288 288 288 288 288 288 288 288 289 289 290 290 290 290 289 289 289 289 289 289 290 292 292 292 292 293 295 295 294 292 292 292 291 290 290 289 288 288 287 287 288 289 290 291 291 290 290 290 291 293 294 295 295 296 297 299
306 305 305 304 303 302 302 301 300 300 299 298 297 297 296 295 294 294 293 293 292 291 291 291 290 290 290 289 289 289 289 288 288 288 288 288 289 289 289 290 290 290 290 289 289 289 290 290 291 292 293 293 292 293 294 296 295 293 292 293 292 291 290 290 290 289 288 288 289 290 291 291 291 290 289 290 291 292 294 294 294 295 297 299 301
306 305 304 304 303 302 302 301 301 300 299 299 298 297 296 296 295 294 293 293 292 291 291 291 291 290 290 289 289 289 289 289 289 288 288 289 289 289 289 289 289 289 289 289 289 290 291 292 293 293 293 292 293 294 296 295 294 293 293 294 293 292 292 291 291 290 289 290 290 291 291 291 289 289 290 291 292 292 293 293 294 295 298 300 302
305 304 303 303 302 302 302 301 300 300 299 298 297 297 296 295 295 294 294 293 292 291 291 290 290 290 290 289 289 289 289 289 288 288 288 288 288 289 289 289 288 288 288 288 289 290 292 293 293 293 293 293 294 295 295 294 293 293 294 294 293 293 293 293 292 291 291 292 292 292 291 289 289 290 291 291 292 292 292 293 294 297 300 301 302
304 303 303 302 302 302 301 300 300 299 299 298 298 297 296 296 295 294 294 293 293 292 291 290 290 289 288 288 288 288 288 288 288 288 288 288 288 288 288 288 288 287 288 288 289 291 292 293 293 293 293 293 294 295 294 292 293 294 294 293 293 294 294 294 293 293 293 293 292 291 290 290 291 291 291 291 292 292 292 294 297 300 301 302 304
303 303 303 303 302 302 301 301 300 300 299 299 298 298 297 296 296 295 294 294 293 293 292 292 291 290 289 288 288 288 287 288 288 288 287 287 287 288 288 287 287 287 288 289 290 291 292 292 292 292 293 293 293 292 291 292 293 294 293 293 294 295 295 295 295 295 294 293 292 291 291 291 291 291 291 291 290 291 294 297 300 301 303 305 307
303 303 303 302 302 301 301 300 299 299 298 298 297 296 296 295 295 294 294 293 293 292 292 292 291 291 290 290 289 288 287 287 287 287 287 287 287 287 287 286 286 287 288 289 290 291 291 292 292 292 292 292 291 290 291 292 293 293 293 295 296 296 296 296 295 294 293 292 292 291 291 291 291 291 290 289 290 293 297 300 301 302 305 308 309
303 303 302 301 301 300 299 299 298 297 297 296 296 295 295 295 294 294 294 293 293 293 292 292 291 291 290 290 290 289 288 287 287 287 286 286 287 286 286 286 286 287 288 289 290 291 291 290 290 290 290 290 289 289 291 292 292 292 294 296 297 296 296 296 295 294 293 292 291 291 291 291 290 287 286 288 292 296 299 300 302 305 308 309 311
302 302 301 301 300 299 299 298 298 297 297 296 296 295 295 295 294 294 294 294 293 293 293 292 292 291 291 290 290 289 288 288 287 287 286 286 286 286 286 286 286 287 288 288 289 290 290 289 289 289 289 288 288 289 291 291 291 293 295 297 296 296 296 295 294 292 290 290 290 291 290 288 285 283 286 291 295 298 299 301 305 308 310 312 316
302 301 301 300 300 299 299 298 298 298 297 297 296 296 295 295 294 294 294 294 293 293 293 293 292 292 291 291 290 289 288 288 287 287 286 286 286 285 285 286 286 287 287 288 288 289 288 288 287 287 286 286 287 289 289 289 291 294 296 296 295 295 294 293 291 289 288 289 290 289 285 281 280 283 289 294 297 298 301 305 307 308 311 317 322
301 301 300 300 300 299 299 298 298 297 297 296 296 295 295 295 294 294 294 293 293 293 293 293 293 292 292 291 290 289 289 288 287 287 286 286 285 285 285 285 286 287 287 287 288 287 286 285 285 285 284 285 287 287 287 288 291 294 294 294 294 294 291 289 286 286 287 288 286 282 278 277 280 287 293 295 297 300 304 306 308 312 318 324 326
301 301 300 300 299 299 298 298 297 297 296 296 295 295 295 294 294 294 294 293 293 293 293 293 293 292 292 291 290 290 289 288 287 286 285 285 284 284 284 285 285 286 286 287 286 284 283 283 283 282 283 285 285 284 285 288 291 293 293 293 292 289 286 284 283 285 285 283 277 273 273 277 283 290 292 294 298 302 304 306 311 318 325 326 325
301 300 300 299 299 298 298 297 296 296 295 295 294 294 294 294 294 293 293 293 293 293 293 293 292 292 292 291 291 290 289 288 287 286 285 284 283 283 283 284 285 285 285 284 283 281 281 281 281 281 283 284 282 282 285 289 290 291 291 290 287 282 280 280 281 282 278 273 269 269 273 280 286 288 289 293 298 299 300 308 318 324 325 323 322
300 300 299 298 298 297 296 296 296 295 295 294 294 293 293 293 293 293 293 293 293 293 292 292 292 292 292 291 291 290 289 288 287 285 284 282 282 281 282 283 283 283 282 280 279 278 278 279 280 281 282 281 280 282 285 288 288 289 287 283 278 276 276 277 277 273 267 263 265 269 275 280 282 283 286 289 290 291 301 316 325 324 320 321 325
299 299 298 297 297 296 296 295 295 294 294 294 293 293 293 293 292 292 292 292 292 292 292 292 292 292 291 291 290 290 289 288 287 285 283 281 280 280 280 280 280 280 279 277 276 276 276 278 280 281 279 278 279 282 285 285 285 284 279 274 272 272 272 270 265 260 258 260 264 269 272 274 272 272 273 271 275 288 308 321 321 317 316 323 335
298 298 297 297 296 296 295 295 294 294 294 293 293 293 293 292 292 292 292 292 292 292 292 292 292 291 291 291 290 290 289 287 285 283 281 280 278 278 278 278 277 276 275 275 274 275 276 278 279 278 276 276 279 282 282 282 281 275 270 267 267 267 263 257 252 251 253 257 260 262 258 251 240 228 230 247 271 295 314 317 313 310 314 329 348
298 297 297 296 296 296 295 295 294 294 293 293 293 293 293 292 293 293 293 292 292 292 292 292 292 291 291 291 290 290 288 287 285 282 280 278 277 276 275 275 274 273 273 272 273 274 276 277 276 274 275 277 278 278 278 277 271 265 263 263 261 256 249 244 242 244 247 249 246 236 220 197 187 197 216 238 274 303 312 310 307 307 314 335 2
298 297 297 297 296 296 295 295 294 294 293 293 292 292 292 292 293 293 293 293 293 292 292 292 292 291 291 291 290 289 288 286 284 281 279 277 276 274 273 272 272 271 270 270 271 273 274 274 273 273 274 275 275 275 272 267 261 258 258 255 248 241 235 233 233 235 235 228 211 188 174 171 179 194 214 246 290 307 308 308 309 315 332 356 15
298 298 297 297 296 296 295 294 294 293 293 292 292 292 292 292 292 292 293 292 292 292 292 291 291 291 290 290 289 288 286 284 282 280 278 276 274 273 271 270 269 268 268 269 270 271 271 271 271 271 271 271 271 268 262 256 254 253 249 241 233 227 223 223 223 219 209 192 175 164 165 173 183 193 214 260 297 308 309 312 321 345 13 26 27
298 298 297 297 296 295 295 294 294 293 292 292 292 291 291 291 291 291 292 292 292 291 291 290 290 290 289 288 287 286 285 283 281 279 278 275 273 271 270 268 267 266 266 267 268 268 268 268 268 268 268 267 264 257 251 249 247 242 234 226 219 215 213 211 207 196 180 167 161 163 170 176 182 191 222 274 306 317 321 334 10 34 40 37 32
298 298 297 297 296 296 295 295 294 294 293 292 292 291 290 290 290 290 290 291 291 291 290 290 289 289 288 287 286 285 283 282 280 278 276 274 272 270 268 266 265 265 265 264 264 264 264 264 263 263 262 259 252 247 244 242 236 227 219 212 207 204 202 196 186 174 165 161 163 168 172 173 177 191 231 313 336 340 4 42 53 52 46 40 32
298 298 297 297 296 296 296 295 295 294 293 293 292 291 291 290 290 289 290 290 290 290 290 289 289 288 287 286 285 283 282 280 278 276 275 273 271 268 266 264 264 262 261 260 260 260 258 257 257 256 252 246 242 239 237 231 221 211 204 200 196 193 188 180 170 164 163 165 167 168 167 168 173 176 85 35 43 65 70 65 59 52 45 38 31
Height
10315 10312 10311 10310 10308 10306 10303 10301 10299 10297 10295 10292 10290 10288 10288 10287 10286 10285 10284 10284 10283 10281 10280 10279 10278 10277 10276 10275 10274 10272 10271 10270 10269 10268 10267 10265 10264 10263 10262 10260 10259 10258 10256 10254 10252 10250 10249 10247 10245 10243 10241 10239 10237 10235 10234 10232 10230 10229 10227 10225 10223 10221 10219 10218 10216 10214 10209 10206 10205 10203 10201 10198 10195 10191 10187 10184 10180 10176 10172 10168 10164 10160 10157 10154 10150
10306 10303 10301 10300 10298 10296 10294 10292 10289 10287 10285 10282 10280 10278 10277 10277 10276 10275 10275 10274 10273 10271 10270 10268 10267 10266 10265 10264 10263 10261 10260 10259 10257 10256 10255 10254 10253 10251 10250 10248 10247 10245 10243 10242 10240 10238 10236 10234 10232 10230 10228 10226 10225 10223 10221 10219 10217 10216 10213 10211 10209 10207 10205 10203 10201 10199 10196 10192 10190 10188 10186 10183 10180 10176 10172 10168 10165 10161 10157 10153 10149 10145 10142 10139 10135
10296 10293 10291 10289 10288 10286 10284 10282 10279 10277 10274 10272 10270 10268 10267 10267 10265 10265 10264 10263 10261 10260 10259 10257 10256 10255 10253 10252 10251 10250 10249 10247 10246 10245 10244 10242 10241 10239 10237 10236 10234 10233 10231 10229 10227 10225 10223 10222 10220 10218 10216 10214 10212 10210 10208 10206 10204 10202 10200 10197 10195 10193 10190 10188 10186 10184 10181 10178 10176 10173 10171 10167 10163 10160 10157 10153 10149 10145 10141 10137 10134 10131 10128 10124 10121
10287 10283 10281 10279 10277 10276 10274 10272 10269 10266 10264 10262 10260 10258 10257 10256 10255 10254 10253 10252 10250 10249 10248 10246 10245 10244 10242 10241 10240 10239 10238 10236 10235 10234 10232 10230 10229 10227 10225 10223 10222 10220 10218 10216 10215 10213 10211 10209 10207 10205 10203 10201 10199 10197 10195 10192 10190 10188 10185 10183 10180 10178 10176 10173 10171 10169 10166 10164 10161 10158 10155 10152 10148 10144 10141 10139 10135 10131 10128 10123 10120 10117 10114 10111 10107
10277 10274 10272 10270 10268 10266 10264 10262 10259 10256 10254 10253 10251 10249 10248 10246 10245 10243 10242 10241 10240 10238 10237 10235 10234 10232 10231 10229 10228 10227 10226 10224 10223 10221 10220 10218 10216 10215 10213 10211 10209 10208 10206 10204 10202 10201 10199 10197 10195 10193 10191 10188 10186 10183 10181 10178 10176 10173 10171 10168 10166 10163 10161 10158 10156 10154 10151 10149 10147 10144 10140 10137 10133 10130 10127 10125 10121 10118 10116 10113 10108 10104 10100 10097 10093
10268 10266 10264 10262 10259 10257 10255 10252 10250 10247 10245 10243 10241 10240 10238 10236 10235 10233 10232 10230 10229 10227 10226 10224 10222 10221 10220 10218 10216 10215 10214 10212 10211 10209 10208 10206 10204 10202 10201 10199 10197 10195 10194 10192 10190 10188 10186 10184 10182 10180 10177 10174 10172 10169 10167 10164 10162 10159 10157 10154 10151 10149 10146 10143 10141 10139 10137 10135 10133 10130 10126 10123 10120 10117 10114 10112 10109 10105 10103 10100 10097 10091 10086 10081 10078
10261 10258 10256 10254 10251 10249 10247 10244 10241 10238 10236 10234 10232 10231 10229 10227 10225 10223 10222 10220 10218 10217 10215 10213 10212 10210 10209 10207 10205 10204 10202 10200 10199 10197 10196 10194 10192 10190 10188 10186 10185 10183 10181 10179 10177 10175 10173 10171 10168 10166 10163 10161 10158 10156 10153 10150 10148 10145 10143 10140 10137 10134 10131 10129 10127 10125 10124 10122 10120 10117 10114 10111 10108 10106 10103 10100 10098 10094 10089 10085 10082 10079 10074 10069 10063
10253 10251 10248 10246 10244 10241 10239 10236 10233 10231 10228 10225 10224 10222 10220 10218 10216 10214 10212 10211 10209 10207 10205 10203 10201 10200 10198 10196 10194 10193 10191 10189 10187 10185 10183 10182 10180 10178 10176 10174 10172 10170 10168 10166 10164 10162 10160 10157 10155 10153 10150 10148 10145 10143 10140 10137 10135 10132 10129 10126 10124 10121 10118 10116 10115 10113 10111 10109 10107 10104 10102 10099 10096 10094 10091 10088 10085 10082 10078 10073 10069 10064 10061 10057 10052
10247 10244 10241 10239 10237 10234 10231 10229 10226 10223 10220 10217 10215 10214 10211 10209 10207 10205 10204 10202 10200 10198 10196 10194 10192 10190 10188 10186 10184 10182 10180 10178 10176 10174 10172 10170 10168 10166 10164 10162 10159 10157 10155 10153 10151 10149 10147 10145 10142 10140 10138 10135 10132 10130 10127 10124 10122 10119 10117 10114 10111 10109 10106 10104 10103 10101 10099 10097 10095 10092 10090 10087 10084 10081 10079 10075 10072 10068 10064 10061 10057 10052 10047 10043 10039
10240 10237 10234 10232 10229 10226 10224 10222 10219 10216 10213 10209 10207 10205 10203 10201 10199 10198 10196 10194 10191 10189 10187 10184 10182 10180 10178 10176 10174 10172 10169 10167 10165 10163 10161 10158 10156 10154 10152 10150 10148 10145 10143 10141 10139 10137 10134 10132 10130 10128 10125 10123 10120 10118 10115 10112 10110 10107 10105 10102 10099 10097 10095 10093 10091 10089 10087 10085 10083 10080 10078 10075 10072 10069 10066 10062 10059 10056 10051 10047 10044 10039 10035 10029 10024
10232 10229 10227 10225 10222 10219 10216 10214 10212 10209 10205 10202 10199 10196 10194 10192 10191 10189 10187 10185 10182 10180 10178 10175 10173 10171 10169 10166 10164 10162 10159 10157 10155 10152 10150 10148 10145 10143 10141 10139 10136 10134 10132 10130 10127 10125 10123 10121 10119 10116 10114 10111 10109 10106 10103 10101 10098 10095 10093 10090 10088 10085 10083 10081 10080 10078 10076 10074 10071 10068 10066 10063 10060 10057 10054 10049 10046 10043 10039 10035 10030 10026 10022 10017 10010
10223 10221 10219 10217 10214 10211 10209 10206 10204 10201 10198 10194 10191 10188 10186 10184 10182 10180 10178 10175 10173 10171 10169 10166 10164 10161 10159 10157 10155 10152 10149 10147 10144 10142 10140 10138 10135 10133 10131 10128 10126 10123 10121 10119 10116 10114 10112 10110 10107 10105 10103 10100 10098 10095 10092 10090 10087 10084 10082 10079 10076 10074 10072 10070 10068 10066 10064 10062 10060 10057 10054 10051 10048 10045 10041 10037 10033 10029 10026 10022 10018 10013 10008 10004 9998
10215 10212 10210 10208 10205 10202 10200 10197 10195 10192 10189 10186 10182 10180 10177 10175 10173 10171 10168 10166 10164 10161 10159 10157 10154 10152 10149 10147 10145 10142 10139 10137 10134 10132 10130 10128 10125 10122 10120 10118 10115 10113 10110 10108 10106 10103 10101 10099 10096 10094 10091 10089 10087 10084 10081 10079 10076 10073 10071 10068 10065 10063 10061 10059 10057 10055 10052 10050 10048 10045 10041 10038 10035 10032 10029 10025 10020 10016 10012 10009 10005 10001 9995 9991 9987
10206 10204 10201 10199 10196 10193 10191 10188 10185 10183 10180 10176 10173 10170 10168 10166 10163 10161 10159 10156 10154 10151 10149 10147 10144 10142 10139 10137 10135 10132 10129 10127 10124 10122 10120 10118 10114 10112 10110 10107 10105 10102 10100 10098 10095 10093 10090 10088 10085 10083 10080 10078 10075 10073 10070 10068 10065 10062 10059 10057 10054 10052 10050 10047 10045 10043 10040 10038 10035 10032 10029 10026 10022 10019 10015 10012 10009 10004 9999 9994 9991 9987 9983 9978 9974
10197 10195 10192 10189 10186 10183 10181 10178 10175 10173 10169 10166 10163 10160 10158 10156 10153 10151 10149 10146 10143 10141 10139 10136 10134 10131 10129 10126 10124 10122 10119 10116 10113 10110 10109 10107 10104 10101 10099 10096 10094 10091 10089 10087 10084 10082 10079 10076 10074 10071 10069 10066 10064 10061 10059 10056 10053 10051 10048 10045 10042 10040 10038 10036 10033 10031 10028 10025 10022 10019 10017 10013 10009 10005 10001 9998 9995 9992 9988 9983 9977 9973 9969 9964 9961
10190 10187 10184 10181 10178 10175 10172 10169 10166 10163 10159 10156 10152 10150 10147 10145 10142 10140 10138 10135 10132 10129 10127 10125 10122 10120 10118 10115 10113 10110 10107 10105 10102 10099 10096 10095 10092 10089 10087 10084 10082 10080 10077 10075 10073 10070 10067 10064 10062 10059 10057 10055 10052 10049 10046 10043 10041 10038 10035 10033 10030 10028 10026 10023 10021 10018 10015 10013 10010 10007 10004 10001 9997 9992 9988 9984 9981 9977 9974 9971 9966 9961 9956 9951 9946
10181 10178 10175 10172 10169 10166 10163 10160 10156 10153 10150 10146 10143 10139 10137 10134 10131 10129 10126 10123 10121 10118 10115 10113 10110 10108 10106 10103 10100 10098 10095 10092 10090 10087 10084 10082 10080 10077 10074 10072 10069 10067 10065 10063 10060 10057 10054 10052 10049 10047 10044 10042 10039 10036 10033 10031 10028 10026 10023 10020 10018 10015 10013 10010 10008 10005 10002 10000 9997 9994 9991 9988 9983 9979 9975 9971 9968 9964 9961 9957 9953 9949 9945 9940 9935
10172 10168 10165 10161 10158 10155 10152 10149 10146 10143 10140 10136 10133 10129 10126 10123 10120 10117 10115 10111 10109 10106 10103 10100 10098 10095 10092 10090 10087 10085 10082 10080 10077 10075 10072 10070 10067 10064 10061 10059 10056 10054 10052 10049 10046 10044 10041 10038 10036 10033 10031 10029 10026 10023 10021 10018 10016 10013 10010 10007 10004 10001 9999 9997 9994 9992 9989 9987 9984 9981 9978 9975 9971 9967 9962 9959 9956 9952 9947 9944 9940 9936 9932 9929 9926
10162 10159 10155 10151 10147 10144 10140 10137 10134 10131 10128 10124 10121 10118 10114 10111 10108 10106 10103 10099 10096 10094 10091 10088 10085 10082 10079 10077 10074 10072 10069 10067 10064 10062 10060 10057 10054 10051 10048 10046 10043 10041 10038 10036 10032 10030 10028 10025 10023 10020 10018 10015 10013 10010 10008 10006 10003 10000 9997 9994 9991 9988 9985 9983 9980 9978 9976 9973 9971 9968 9965 9961 9958 9954 9950 9946 9943 9939 9935 9931 9928 9924 9920 9917 9915
10153 10149 10145 10141 10137 10133 10129 10125 10122 10118 10115 10112 10108 10105 10102 10098 10095 10093 10090 10086 10083 10081 10078 10075 10072 10069 10066 10063 10061 10058 10056 10054 10051 10048 10046 10044 10041 10038 10034 10032 10029 10027 10025 10022 10019 10016 10014 10011 10009 10007 10005 10002 10000 9998 9995 9993 9990 9987 9984 9981 9978 9975 9972 9969 9967 9964 9962 9960 9957 9955 9952 9949 9945 9942 9938 9934 9931 9927 9923 9919 9916 9912 9909 9905 9902
10143 10139 10135 10131 10126 10122 10117 10113 10109 10106 10102 10099 10096 10093 10089 10085 10082 10079 10076 10072 10070 10068 10065 10062 10059 10056 10053 10050 10047 10044 10042 10039 10037 10035 10033 10030 10028 10024 10021 10018 10016 10014 10011 10009 10006 10003 10000 9998 9996 9994 9992 9990 9988 9984 9982 9979 9976 9974 9971 9968 9965 9962 9959 9956 9954 9952 9949 9947 9944 9942 9939 9936 9933 9930 9926 9922 9919 9915 9912 9908 9905 9901 9898 9894 9892
10132 10128 10124 10119 10115 10110 10105 10101 10097 10093 10089 10086 10083 10080 10076 10072 10069 10066 10062 10059 10056 10053 10051 10048 10045 10042 10040 10037 10033 10030 10027 10025 10023 10021 10019 10017 10014 10011 10008 10005 10002 10000 9998 9995 9993 9990 9987 9984 9982 9981 9979 9978 9975 9971 9967 9964 9961 9960 9958 9956 9953 9950 9946 9943 9941 9939 9937 9934 9931 9928 9926 9923 9920 9917 9914 9910 9906 9903 9900 9898 9895 9891 9888 9885 9883
10121 10116 10111 10107 10102 10097 10093 10088 10083 10079 10075 10072 10069 10066 10062 10059 10056 10053 10049 10046 10043 10040 10036 10034 10031 10028 10026 10023 10019 10015 10012 10010 10008 10006 10005 10003 10000 9997 9994 9992 9989 9987 9984 9982 9979 9977 9975 9972 9970 9968 9966 9963 9960 9957 9953 9950 9948 9946 9945 9943 9940 9937 9934 9932 9930 9927 9924 9921 9918 9915 9913 9910 9908 9905 9902 9899 9895 9892 9890 9887 9884 9881 9878 9874 9873
10109 10104 10099 10094 10089 10084 10079 10075 10070 10066 10062 10058 10054 10051 10048 10045 10042 10039 10035 10032 10030 10027 10023 10020 10017 10014 10012 10010 10006 10001 9998 9996 9995 9993 9990 9988 9987 9984 9981 9978 9976 9974 9971 9969 9966 9964 9962 9960 9958 9955 9952 9949 9946 9942 9939 9937 9935 9934 9933 9931 9928 9925 9923 9921 9918 9915 9912 9909 9906 9903 9901 9898 9896 9893 9890 9888 9886 9883 9880 9877 9875 9872 9867 9863 9862
10096 10091 10086 10081 10076 10071 10066 10061 10056 10052 10048 10044 10040 10037 10034 10030 10027 10024 10021 10018 10015 10013 10010 10007 10003 10000 9998 9996 9993 9989 9986 9983 9981 9979 9976 9974 9973 9970 9967 9965 9963 9961 9959 9956 9954 9952 9950 9947 9944 9942 9939 9936 9932 9928 9926 9924 9924 9924 9922 9918 9915 9913 9911 9909 9907 9903 9900 9897 9895 9892 9890 9887 9884 9882 9879 9878 9877 9874 9870 9868 9866 9862 9857 9853 9852
10083 10078 10073 10068 10063 10058 10053 10048 10043 10038 10034 10030 10026 10022 10019 10016 10012 10010 10007 10004 10001 9999 9996 9994 9991 9988 9985 9982 9979 9977 9973 9970 9967 9965 9962 9961 9960 9958 9955 9952 9950 9949 9946 9944 9942 9939 9936 9934 9931 9929 9927 9923 9919 9916 9913 9913 9914 9913 9910 9906 9903 9901 9900 9897 9895 9892 9889 9886 9884 9882 9879 9876 9874 9872 9870 9869 9867 9865 9862 9858 9855 9853 9850 9846 9844
10070 10065 10060 10055 10049 10044 10039 10034 10029 10025 10021 10017 10012 10009 10006 10002 9999 9996 9993 9991 9988 9985 9982 9980 9978 9976 9973 9969 9967 9964 9961 9958 9955 9953 9950 9948 9947 9945 9943 9940 9939 9937 9934 9932 9929 9927 9924 9922 9920 9918 9914 9911 9907 9904 9903 9903 9903 9902 9898 9894 9892 9891 9889 9886 9883 9881 9879 9877 9874 9871 9869 9866 9865 9863 9862 9861 9859 9856 9853 9849 9846 9845 9843 9840 9836
10056 10051 10045 10041 10036 10031 10026 10021 10017 10013 10008 10004 10000 9996 9993 9990 9986 9983 9981 9978 9975 9972 9969 9967 9965 9963 9960 9957 9955 9952 9949 9946 9944 9941 9939 9937 9935 9933 9931 9929 9927 9925 9922 9919 9917 9915 9913 9912 9909 9906 9902 9899 9896 9894 9893 9893 9893 9891 9887 9883 9882 9881 9878 9876 9873 9871 9869 9867 9864 9861 9860 9858 9857 9856 9854 9853 9851 9847 9844 9841 9839 9837 9835 9832 9829
10042 10036 10031 10026 10022 10017 10012 10008 10004 10000 9996 9992 9988 9984 9981 9978 9974 9971 9968 9966 9963 9960 9957 9955 9952 9950 9948 9945 9943 9940 9938 9935 9933 9931 9928 9926 9924 9922 9920 9917 9915 9913 9910 9908 9905 9903 9902 9901 9898 9895 9892 9889 9886 9884 9883 9883 9883 9880 9876 9873 9872 9870 9868 9866 9864 9862 9860 9857 9855 9853 9852 9851 9850 9849 9847 9845 9842 9839 9836 9835 9833 9830 9828 9825 9823
10028 10023 10018 10013 10008 10003 9999 9996 9991 9987 9984 9980 9976 9972 9969 9966 9963 9960 9957 9954 9951 9948 9946 9943 9941 9938 9936 9933 9931 9929 9926 9924 9922 9920 9917 9915 9913 9911 9910 9907 9903 9900 9898 9896 9893 9892 9891 9890 9888 9885 9883 9880 9877 9875 9875 9875 9873 9869 9866 9864 9863 9861 9858 9856 9856 9854 9851 9848 9847 9845 9845 9844 9844 9842 9839 9836 9834 9832 9830 9828 9826 9823 9821 9819 9817
10015 10010 10005 10000 9995 9990 9987 9984 9980 9975 9971 9968 9964 9961 9957 9954 9951 9948 9945 9942 9939 9936 9934 9932 9929 9927 9925 9922 9919 9917 9915 9913 9911 9909 9906 9905 9903 9901 9899 9897 9894 9890 9887 9884 9882 9881 9881 9879 9878 9876 9874 9870 9868 9867 9867 9866 9862 9859 9857 9856 9854 9851 9849 9849 9847 9845 9843 9841 9840 9839 9838 9838 9836 9834 9831 9829 9828 9827 9824 9822 9819 9817 9816 9814 9812
10002 9997 9992 9987 9982 9978 9974 9971 9967 9963 9959 9956 9952 9949 9946 9943 9939 9936 9933 9931 9928 9925 9922 9920 9918 9916 9914 9911 9909 9906 9904 9902 9900 9898 9896 9895 9893 9891 9889 9887 9884 9881 9877 9874 9873 9871 9871 9870 9868 9867 9865 9862 9859 9859 9859 9856 9853 9850 9849 9847 9845 9843 9842 9841 9839 9837 9836 9835 9834 9833 9832 9830 9828 9826 9825 9823 9822 9820 9818 9816 9814 9812 9811 9810 9808
9989 9984 9979 9975 9970 9966 9962 9959 9955 9952 9948 9945 9941 9938 9935 9932 9929 9925 9922 9920 9917 9914 9912 9910 9908 9905 9903 9901 9899 9896 9894 9891 9889 9887 9886 9884 9883 9881 9879 9877 9874 9871 9868 9865 9864 9862 9861 9861 9859 9857 9856 9853 9851 9851 9850 9847 9844 9842 9841 9839 9837 9836 9835 9833 9832 9830 9829 9828 9828 9826 9825 9823 9821 9820 9819 9817 9816 9814 9812 9810 9809 9808 9807 9805 9803
9976 9971 9967 9963 9958 9955 9951 9947 9943 9940 9936 9933 9930 9926 9923 9920 9917 9914 9912 9909 9906 9903 9900 9899 9897 9896 9893 9890 9889 9887 9884 9881 9879 9877 9876 9874 9872 9871 9869 9867 9864 9862 9858 9856 9855 9854 9853 9852 9850 9848 9847 9845 9844 9842 9840 9838 9836 9835 9834 9831 9830 9829 9828 9827 9825 9824 9823 9822 9821 9820 9818 9817 9816 9815 9813 9812 9810 9808 9807 9806 9805 9804 9802 9800 9799
9963 9958 9954 9950 9946 9942 9938 9934 9930 9927 9924 9921 9918 9914 9911 9908 9905 9903 9900 9898 9895 9893 9890 9887 9886 9884 9881 9879 9879 9877 9874 9871 9869 9867 9865 9864 9863 9861 9860 9857 9854 9852 9850 9847 9847 9846 9844 9843 9841 9840 9838 9837 9836 9834 9832 9830 9829 9828 9826 9825 9824 9823 9822 9820 9819 9818 9817 9816 9815 9813 9812 9811 9810 9809 9808 9806 9805 9804 9803 9802 9801 9799 9798 9796 9794
9951 9946 9942 9937 9934 9930 9926 9922 9919 9916 9913 9910 9907 9904 9901 9897 9894 9892 9889 9887 9884 9882 9879 9877 9876 9874 9871 9868 9867 9866 9864 9862 9860 9858 9856 9854 9853 9852 9850 9848 9845 9843 9841 9839 9838 9838 9836 9835 9833 9832 9831 9829 9827 9825 9824 9824 9823 9821 9820 9819 9818 9817 9816 9815 9814 9812 9811 9810 9809 9808 9807 9806 9805 9804 9802 9801 9801 9800 9800 9798 9797 9795 9794 9792 9790
9939 9935 9930 9926 9923 9919 9915 9912 9908 9905 9902 9899 9896 9893 9890 9887 9884 9881 9878 9875 9873 9870 9868 9866 9865 9863 9861 9859 9857 9854 9853 9851 9850 9849 9846 9845 9844 9842 9841 9839 9837 9835 9833 9831 9830 9829 9828 9827 9825 9824 9823 9822 9819 9818 9818 9817 9816 9815 9814 9814 9813 9812 9810 9809 9808 9807 9806 9805 9804 9803 9803 9802 9801 9799 9798 9798 9798 9797 9796 9795 9793 9792 9790 9789 9787
9927 9923 9919 9915 9911 9908 9904 9901 9897 9893 9890 9887 9884 9882 9879 9876 9873 9870 9867 9864 9861 9859 9857 9855 9853 9851 9850 9849 9847 9845 9842 9840 9839 9839 9837 9836 9835 9833 9831 9830 9828 9827 9826 9824 9822 9821 9820 9819 9818 9817 9815 9814 9813 9812 9812 9811 9809 9809 9809 9808 9807 9806 9805 9804 9803 9802 9801 9800 9800 9799 9798 9797 9796 9795 9795 9795 9795 9794 9793 9791 9791 9789 9787 9786 9785
9916 9911 9907 9903 9899 9896 9892 9889 9885 9882 9878 9875 9872 9869 9867 9864 9861 9858 9856 9853 9850 9847 9845 9843 9842 9840 9839 9838 9836 9835 9833 9831 9829 9828 9828 9827 9826 9824 9823 9821 9820 9819 9818 9817 9815 9814 9812 9811 9811 9810 9808 9807 9807 9806 9805 9804 9803 9804 9803 9803 9802 9801 9800 9799 9798 9797 9796 9796 9796 9795 9794 9793 9792 9792 9793 9792 9791 9790 9789 9788 9787 9787 9786 9784 9783
9904 9900 9895 9891 9888 9884 9880 9877 9873 9870 9866 9863 9860 9857 9855 9852 9850 9847 9845 9842 9839 9837 9835 9833 9831 9830 9829 9827 9826 9825 9824 9822 9820 9819 9818 9817 9816 9815 9814 9813 9812 9811 9810 9809 9808 9807 9805 9804 9804 9803 9802 9801 9801 9800 9799 9798 9798 9798 9798 9798 9797 9797 9796 9795 9794 9793 9793 9793 9792 9791 9790 9790 9790 9790 9790 9790 9788 9787 9786 9785 9785 9784 9783 9783 9782
9892 9888 9884 9880 9876 9872 9869 9865 9862 9859 9855 9852 9849 9846 9843 9841 9839 9836 9834 9831 9829 9826 9824 9822 9820 9819 9818 9817 9816 9815 9813 9812 9811 9810 9809 9808 9807 9806 9805 9804 9804 9804 9803 9802 9801 9799 9798 9797 9797 9796 9796 9796 9795 9794 9793 9793 9793 9794 9793 9793 9793 9792 9791 9790 9789 9789 9789 9789 9789 9788 9787 9787 9788 9788 9787 9786 9785 9784 9784 9783 9783 9782 9782 9781 9780
9879 9876 9872 9868 9865 9861 9857 9854 9851 9848 9845 9841 9838 9836 9833 9830 9828 9825 9823 9821 9819 9816 9814 9812 9810 9809 9808 9807 9806 9805 9804 9803 9802 9801 9801 9800 9799 9797 9797 9796 9796 9796 9796 9795 9793 9792 9791 9791 9790 9790 9791 9790 9789 9788 9787 9788 9789 9789 9789 9789 9788 9787 9786 9786 9786 9786 9786 9785 9785 9785 9785 9786 9786 9785 9784 9784 9783 9782 9781 9781 9781 9781 9780 9780 9779
9868 9864 9860 9857 9853 9850 9846 9843 9840 9837 9834 9831 9828 9825 9823 9820 9818 9815 9813 9811 9809 9807 9805 9803 9801 9800 9799 9798 9796 9796 9795 9794 9793 9792 9792 9791 9790 9789 9789 9789 9789 9788 9788 9787 9786 9785 9785 9784 9784 9785 9785 9784 9783 9782 9783 9784 9784 9785 9785 9784 9783 9783 9782 9783 9783 9783 9783 9782 9782 9783 9783 9784 9783 9783 9782 9781 9781 9780 9780 9780 9780 9779 9779 9778 9776
9857 9852 9849 9845 9842 9839 9836 9832 9829 9826 9824 9821 9817 9815 9812 9810 9808 9806 9804 9802 9800 9798 9796 9794 9792 9791 9790 9789 9788 9786 9786 9786 9785 9784 9783 9783 9782 9781 9781 9781 9781 9781 9781 9780 9779 9779 9779 9779 9779 9780 9779 9778 9777 9778 9779 9779 9780 9781 9780 9780 9779 9779 9779 9780 9780 9780 9779 9780 9780 9781 9782 9782 9781 9780 9780 9779 9778 9778 9778 9779 9779 9779 9777 9776 9774
9846 9841 9837 9834 9831 9828 9825 9822 9819 9816 9813 9810 9807 9805 9802 9800 9798 9796 9794 9792 9790 9789 9787 9785 9784 9782 9781 9780 9779 9778 9777 9777 9776 9775 9775 9774 9774 9774 9774 9774 9774 9774 9774 9773 9773 9773 9773 9773 9774 9774 9773 9773 9773 9774 9775 9776 9776 9776 9776 9775 9775 9776 9776 9776 9777 9777 9777 9778 9779 9779 9780 9779 9779 9778 9778 9777 9776 9777 9778 9778 9778 9777 9777 9775 9773
9834 9831 9827 9823 9820 9817 9814 9811 9808 9806 9803 9800 9797 9795 9793 9790 9788 9786 9785 9783 9781 9780 9778 9776 9775 9773 9772 9771 9770 9770 9769 9768 9768 9767 9767 9767 9767 9767 9767 9767 9767 9767 9767 9767 9767 9767 9768 9768 9768 9768 9768 9769 9769 9770 9771 9772 9772 9772 9772 9772 9772 9773 9773 9773 9774 9774 9775 9776 9777 9778 9778 9778 9777 9776 9776 9775 9776 9776 9777 9777 9777 9776 9775 9774 9771
9823 9820 9816 9812 9809 9806 9803 9801 9798 9795 9793 9790 9788 9785 9783 9781 9779 9777 9775 9774 9773 9771 9769 9768 9766 9765 9764 9763 9762 9761 9761 9760 9759 9759 9759 9759 9760 9760 9760 9760 9761 9761 9760 9760 9761 9761 9762 9762 9763 9763 9764 9764 9765 9767 9768 9768 9768 9768 9768 9769 9769 9770 9770 9771 9771 9773 9774 9775 9776 9776 9776 9776 9775 9774 9774 9775 9776 9776 9776 9776 9776 9775 9774 9772 9770
9811 9808 9805 9802 9798 9795 9792 9790 9787 9785 9783 9780 9778 9776 9774 9772 9770 9769 9767 9766 9764 9763 9761 9760 9758 9757 9756 9755 9754 9753 9753 9752 9752 9752 9752 9753 9753 9753 9754 9754 9754 9754 9754 9755 9755 9756 9757 9757 9758 9759 9760 9761 9762 9763 9764 9764 9764 9765 9765 9766 9766 9767 9768 9769 9770 9772 9773 9774 9774 9775 9774 9773 9773 9773 9774 9775 9776 9776 9776 9776 9775 9774 9772 9770 9768
9800 9796 9793 9790 9787 9784 9782 9779 9777 9774 9772 9770 9768 9766 9765 9763 9762 9760 9759 9757 9756 9755 9753 9752 9751 9750 9749 9748 9747 9746 9746 9745 9745 9745 9746 9746 9746 9747 9747 9748 9748 9748 9749 9749 9750 9751 9752 9753 9754 9755 9756 9757 9759 9760 9760 9760 9761 9762 9763 9763 9764 9765 9766 9768 9769 9771 9772 9773 9773 9773 9772 9772 9772 9773 9774 9775 9776 9776 9776 9775 9774 9772 9770 9769 9767
9789 9785 9782 9779 9776 9773 9771 9768 9766 9764 9762 9760 9758 9757 9755 9754 9753 9752 9751 9749 9748 9747 9746 9744 9743 9742 9741 9740 9740 9739 9739 9739 9739 9739 9739 9740 9740 9741 9741 9742 9742 9743 9743 9744 9745 9746 9748 9749 9750 9751 9753 9754 9755 9756 9756 9758 9759 9759 9760 9761 9762 9764 9765 9767 9768 9770 9770 9771 9771 9770 9771 9771 9772 9773 9774 9775 9776 9776 9776 9774 9773 9771 9769 9768 9767
9778 9775 9772 9769 9766 9763 9760 9758 9756 9754 9752 9750 9749 9747 9746 9745 9744 9743 9742 9741 9740 9739 9738 9737 9736 9735 9734 9733 9733 9733 9733 9733 9733 9733 9733 9734 9734 9735 9735 9736 9737 9738 9738 9739 9741 9743 9744 9745 9746 9748 9749 9751 9751 9752 9754 9755 9756 9757 9758 9759 9761 9763 9764 9766 9767 9768 9769 9769 9769 9769 9770 9772 9773 9774 9775 9776 9776 9776 9775 9773 9771 9770 9769 9768 9767